Starlink 1407

operational
NORAD ID: 45703 Int'l Des: 2020-035 Owner: SPXS Country: US Constellation: starlink
LEOCIRCULAR

About Starlink 1407

Description loading...

Live Position

Loading 3D Globe...

Upcoming Passes

Altitude History

Altitude vs Time

uPlot chart will show altitude changes over time

Two-Line Element Set

1 45703U 20035AY 26061.00002315 .00082591 00000-0 10782-2 0 9990
2 45703 53.0362 353.1676 0011813 75.2184 255.7498 15.57911936 5936
Epoch: Mar 2, 2026 • Age: 43 hours

Current Status

Altitude 388.6 km
Velocity 7.68 km/s
Sub-Earth Point 28.15°N, 84.37°W
Launch Date Jun 4, 2020
Age 5.7 years
Type internet

Technical Details

Classification Payload
Mass 260.00 kg
Dry Mass 248.00 kg
Total Mass 260.00 kg
Length 0.20 m
Diameter 2.80 m
Span 9.00 m
Shape Box + pan
Manufacturer SPXS
Bus Type Starlink
Phase Status In Orbit
Owner/State SPXS/US

Large Constellations

Loading constellations...